Home > Weather > Lowell > Past weeks

Flag for USA Past Weather in Lowell, Massachusetts, USA — Yesterday and Last 2 Weeks

Now
81 °F

Partly sunny.


Feels Like: 81 °F
Forecast: 62 / 87 °F
Wind: 16 mph from Southeast

Location: Hanscom Field

Current Time: May 26, 2016 at 4:29:39 PM

Latest Report: May 26, 2016 at 3:56 PM


Visibility: 10 mi

Pressure: 30.06 "Hg

Humidity: 44%

Dew Point: 57 °F

Location of LowellLocation

Past Weather in Lowell — Graph

°F

Lowell Temperature Yesterday

Maximum temperature yesterday: 89 °F (at 4:56 PM)
Minimum temperature yesterday: 54 °F (at 12:56 AM)
Average temperature yesterday: 70 °F

High & Low Weather Summary for the Past Weeks

 TemperatureHumidityPressure
High89 °F (May 25, 4:56 PM)100% (May 14, 3:56 AM)30.24 "Hg (May 14, 3:56 AM)
Low39 °F (May 16, 5:56 AM)17% (May 11, 4:56 PM)29.54 "Hg (May 15, 1:56 AM)
Average60 °F61%29.98 "Hg
* Reported May 11 2:56 PM — May 26 2:56 PM, Lowell, Weather by CustomWeather, © 2016

Note: Actual official high and low records may vary slightly from our data, if they occured in-between our weather recording intervals... More about our weather records

Advertising

Lowell Weather History for the Previous 24 Hours

Scroll right to see more
 ConditionsComfort  
Time TempWeatherWind HumidityBarometerVisibility
2:56 PM
Thu, May 26
88 °FSunny.8 mph36%30.04 "Hg10 mi
1:56 PM88 °FPassing clouds.N/A36%30.06 "Hg10 mi
12:56 PM85 °FSunny.6 mph40%30.08 "Hg10 mi
11:56 AM82 °FSunny.3 mph44%30.09 "Hg10 mi
10:56 AM80 °FSunny.3 mph47%30.10 "Hg10 mi
9:56 AM77 °FSunny.5 mph52%30.11 "Hg10 mi
8:56 AM75 °FSunny.5 mph55%30.14 "Hg10 mi
7:56 AM70 °FSunny.No wind66%30.13 "Hg10 mi
6:56 AM64 °FSunny.No wind78%30.11 "Hg10 mi
5:56 AM56 °FClear.No wind90%30.09 "Hg10 mi
4:56 AM56 °FClear.No wind90%30.07 "Hg10 mi
3:56 AM59 °FClear.No wind87%30.06 "Hg10 mi
2:56 AM58 °FClear.No wind87%30.04 "Hg10 mi
1:56 AM62 °FClear.No wind75%30.03 "Hg10 mi
12:56 AM65 °FClear.6 mph66%30.03 "Hg10 mi
11:56 PM
Wed, May 25
69 °FClear.6 mph57%30.02 "Hg10 mi
10:56 PM71 °FClear.5 mph53%30.01 "Hg10 mi
9:56 PM73 °FClear.6 mph48%30.01 "Hg10 mi
8:56 PM75 °FSunny.8 mph43%29.99 "Hg10 mi
7:56 PM81 °FPartly sunny.9 mph34%29.98 "Hg10 mi
6:56 PM84 °FSunny.9 mph27%29.97 "Hg10 mi
5:56 PM87 °FPartly sunny.10 mph23%29.95 "Hg10 mi
4:56 PM89 °FPartly sunny.13 mph22%29.95 "Hg10 mi
Weather by CustomWeather, © 2016

See weather overviewHow to use our weather pages